Dewpoint
33 33 33 32 32 31 31 30 29 30 32 31 29 29 31 25 21 21 24 32 34 40 44 44 42 40 38 36 36 37 37 38 39 39 38 38 39 39 39 40 41 40 41 42 42 44 48 51 52 53 54 55 55 55 55 55 55 55 55 55 55 54 54 54 53 54 55 55 55 54 52 51 51 50 50 51 51 51 51 51 51 50 49 48 47 47 46
32 33 33 32 31 30 30 30 30 30 31 33 32 31 31 28 26 27 35 36 37 43 43 40 37 36 36 35 35 35 35 36 37 37 37 38 38 39 39 39 40 40 40 41 42 42 43 44 48 50 51 51 52 53 54 55 55 56 56 55 54 54 54 54 54 54 54 54 54 54 54 53 53 53 52 52 51 51 51 51 51 50 49 49 48 47 47
31 33 34 33 31 29 27 29 31 30 31 32 33 31 35 38 38 39 40 39 37 41 38 35 35 35 35 34 33 33 33 34 34 35 36 36 37 38 39 39 40 40 41 41 41 41 41 41 42 43 44 42 43 43 44 46 48 51 52 52 52 52 52 53 53 53 52 52 52 52 52 52 52 53 53 53 53 53 52 51 51 50 48 48 47 47 47
28 33 33 32 32 28 27 29 31 31 31 31 33 33 36 35 36 38 38 36 34 38 35 35 34 34 33 32 32 32 32 34 35 36 37 37 37 38 39 40 40 40 40 40 40 40 41 41 41 41 41 41 40 41 42 43 43 43 43 43 44 43 44 43 43 44 45 45 44 44 44 45 46 47 47 47 49 50 52 52 52 52 52 52 51 49 47
27 33 34 32 30 27 25 27 31 32 32 33 36 36 37 38 38 36 34 35 39 36 35 34 34 33 33 33 32 32 32 33 35 36 35 37 38 39 40 40 40 40 40 41 41 40 39 40 40 41 42 41 41 41 42 43 39 40 42 42 41 40 39 39 39 40 40 40 40 40 39 40 40 41 41 42 43 44 46 48 48 48 49 50 50 51 51
28 30 31 33 29 22 23 33 36 34 33 33 34 34 35 37 37 33 35 40 37 35 34 33 34 34 36 36 38 38 35 34 35 36 37 38 39 39 39 40 40 41 42 42 42 42 41 42 40 38 38 39 40 41 40 42 42 38 37 37 38 38 38 38 39 39 39 38 39 38 39 39 39 38 38 39 41 42 43 43 44 44 44 45 46 47 49
28 29 29 27 24 25 33 37 36 34 35 33 35 35 36 37 38 41 40 39 36 35 35 35 35 35 35 36 36 38 39 38 37 37 38 38 37 38 38 39 38 38 39 40 40 40 39 40 41 41 38 37 38 39 40 39 40 39 37 37 38 38 39 39 39 38 39 39 39 38 37 38 38 36 37 38 38 39 39 40 41 41 42 43 44 44 45
27 25 23 20 20 31 34 37 36 35 36 34 34 33 35 37 38 38 36 36 35 34 34 34 34 33 32 32 33 35 36 39 37 38 38 38 37 37 38 39 40 40 41 41 41 41 41 39 39 37 38 39 36 37 38 39 40 39 38 38 37 38 38 40 41 40 39 40 40 40 38 39 40 39 36 37 39 39 38 38 39 39 40 41 41 42 43
23 24 23 25 31 32 31 31 32 33 30 32 31 29 33 37 38 37 35 35 35 34 33 33 33 32 31 31 31 34 34 35 36 37 36 35 37 38 38 38 38 39 41 42 42 42 42 42 40 40 40 39 38 37 37 38 39 40 39 39 39 39 38 38 40 40 40 40 40 40 40 39 38 37 36 36 39 41 39 37 37 38 39 39 40 40 41
26 24 23 24 23 22 27 32 35 37 38 36 37 34 32 37 38 38 36 35 35 35 34 33 32 33 31 30 30 33 36 36 36 36 34 34 35 35 36 37 39 39 38 39 41 41 41 41 42 42 41 41 40 39 39 38 38 39 39 39 38 39 39 40 40 39 39 39 39 39 39 39 40 40 40 38 37 37 38 39 39 37 38 37 38 39 39
24 21 20 19 19 24 29 31 33 35 37 36 36 33 30 36 38 39 37 36 35 35 35 35 36 36 30 29 31 33 36 37 39 39 38 35 36 36 36 36 36 37 38 38 38 39 39 39 41 42 42 41 41 41 41 41 40 40 40 40 40 39 39 38 40 40 38 38 39 39 39 41 40 39 40 40 39 39 38 38 38 37 37 36 36 36 38
23 21 22 22 27 26 30 31 32 35 36 38 35 26 27 35 37 38 37 35 35 35 33 35 34 33 29 29 31 34 36 39 38 39 39 36 36 36 37 37 37 37 37 36 36 36 36 37 38 38 38 38 39 38 39 39 39 40 40 40 41 41 41 42 41 40 39 39 40 39 37 37 37 38 39 40 41 41 39 37 36 36 36 35 35 35 36
22 24 22 22 25 29 32 31 32 33 34 36 25 23 30 35 36 37 37 37 37 37 36 36 32 33 34 33 35 36 36 37 38 38 38 36 34 34 35 35 36 34 35 35 35 35 36 36 35 35 35 35 35 36 36 37 37 38 39 39 39 39 39 39 40 41 41 40 39 39 38 38 38 38 37 37 37 39 39 39 39 38 36 36 35 35 35
20 18 20 21 23 28 31 31 32 33 33 26 25 31 34 36 36 36 35 35 36 37 36 35 34 33 34 35 35 35 35 36 37 34 33 33 33 35 37 37 35 34 34 34 34 34 35 35 35 35 35 35 35 34 34 35 36 37 36 36 37 37 37 37 37 38 38 39 40 39 40 39 38 38 39 39 38 39 37 37 36 35 35 35 35 35 35
19 19 20 19 20 26 32 31 30 33 30 28 32 32 33 36 38 34 33 35 37 37 35 35 34 33 34 34 34 35 34 34 32 31 31 31 32 33 33 34 34 34 33 34 34 34 34 34 35 35 35 35 35 35 34 35 36 36 36 36 36 36 37 37 38 38 38 38 38 38 38 38 37 36 37 37 36 37 36 35 35 35 35 35 34 34 35
19 20 21 21 26 30 32 31 27 30 32 35 34 32 32 33 34 34 34 35 37 37 35 34 34 34 34 34 34 34 34 32 30 30 31 32 32 33 34 34 34 34 33 34 34 34 35 35 35 35 35 35 35 35 35 36 37 36 36 36 36 36 36 37 36 37 37 38 37 36 37 37 37 36 36 36 37 36 36 36 35 34 35 35 34 35 34
19 22 27 31 31 30 31 33 32 32 32 34 35 35 35 33 33 32 33 34 34 35 36 35 34 34 35 34 34 34 34 31 30 30 30 31 32 33 33 33 34 33 32 33 33 34 34 35 35 35 35 35 35 34 36 37 36 36 36 36 35 35 35 36 36 36 36 36 36 36 36 36 36 36 35 36 35 35 35 35 34 34 34 34 34 34 34
27 28 30 32 30 30 31 32 33 32 32 33 34 34 34 36 37 35 31 32 32 34 36 35 35 35 35 34 35 35 34 32 31 32 30 30 31 32 32 33 33 33 33 33 33 33 34 34 35 35 35 35 34 35 36 37 36 36 36 35 35 35 35 35 36 36 36 36 36 36 36 35 36 36 35 35 35 35 35 34 34 34 34 34 34 34 34
22 20 27 28 29 30 30 31 32 32 33 32 33 33 35 37 37 37 38 37 36 37 37 36 35 35 35 35 35 35 32 31 30 30 30 30 31 31 32 33 33 33 33 33 33 33 33 34 34 34 35 35 35 36 36 35 35 35 35 35 35 33 33 33 33 33 34 34 34 34 34 34 34 35 35 34 34 35 35 34 34 34 34 34 34 34 34
19 22 26 28 29 29 30 31 31 32 33 33 34 33 33 33 34 35 37 38 37 37 37 36 35 35 36 35 35 32 31 31 30 28 29 29 31 32 32 33 33 33 32 32 33 33 33 32 33 34 34 33 34 34 35 35 34 34 34 33 33 32 32 33 34 33 33 33 34 33 33 33 34 34 34 35 34 35 35 34 34 34 34 34 34 34 34
24 24 25 25 27 27 29 31 31 33 33 33 33 33 33 33 34 34 36 36 37 37 36 37 36 36 36 35 36 35 35 34 31 30 30 31 32 32 32 32 33 33 33 33 33 34 33 32 32 33 32 33 33 32 33 33 32 33 33 33 32 31 31 31 32 33 33 33 33 33 33 33 33 34 34 34 34 34 34 34 34 35 35 35 35 35 34
18 20 23 24 19 19 26 29 30 30 32 32 32 33 32 33 33 33 32 32 33 34 35 35 34 33 32 31 30 29 30 29 29 30 31 31 32 32 33 34 34 34 34 33 33 33 32 32 33 33 32 32 33 34 34 33 32 34 33 31 31 31 31 31 32 33 33 33 33 33 33 33 33 33 32 35 35 35 34 35 35 35 35 35 36 36 35
17 23 25 25 25 25 25 28 29 29 31 31 31 31 31 32 33 32 31 30 29 29 29 31 31 30 29 29 29 28 28 28 29 30 31 31 31 31 32 32 32 32 32 34 33 33 32 33 33 33 33 33 33 33 33 33 32 32 32 32 31 31 32 31 32 33 33 32 32 32 32 33 32 32 33 33 34 34 35 35 35 35 35 35 35 35 36
26 26 27 27 25 25 26 27 28 29 28 28 28 28 29 30 30 31 30 29 28 27 27 28 29 29 28 29 28 28 28 28 29 30 29 29 30 30 31 31 31 31 31 31 31 31 32 32 31 32 33 33 32 33 32 32 31 31 31 32 31 31 31 31 32 32 32 32 32 32 32 32 32 33 33 33 34 34 34 34 35 35 35 35 35 35 35
26 29 29 28 28 28 28 28 29 29 30 27 25 24 25 26 26 28 29 27 27 27 27 27 27 28 28 28 27 26 26 27 29 29 31 31 30 30 30 30 29 30 30 31 30 30 30 31 31 31 32 32 32 32 31 31 31 31 31 31 31 31 31 31 32 32 32 32 32 32 32 32 32 33 33 33 33 33 33 34 34 34 34 34 34 34 34
28 27 27 28 29 29 29 26 26 27 28 30 27 27 32 35 29 30 27 28 27 26 27 27 26 26 27 26 26 26 27 28 30 31 29 29 29 29 29 30 30 30 30 29 29 30 30 30 30 31 32 32 32 32 31 31 31 31 31 31 31 31 32 32 33 32 32 32 32 32 32 32 32 33 33 33 33 32 32 33 33 33 34 34 34 34 34
26 26 25 25 24 24 25 26 25 26 25 24 25 26 27 29 31 29 27 27 26 26 26 26 26 26 26 26 27 27 27 28 29 29 28 28 29 30 30 29 30 30 29 29 30 31 31 30 30 31 31 32 31 31 31 30 31 30 30 30 31 31 30 32 32 32 31 31 31 32 32 32 32 32 32 32 32 32 32 32 32 32 33 33 34 34 34
24 23 24 22 21 22 23 23 26 26 26 25 25 24 25 25 25 25 25 25 24 25 25 26 25 25 24 25 25 25 27 27 27 27 27 28 29 28 28 28 29 29 29 28 30 30 30 29 30 30 31 31 31 32 31 31 31 31 30 30 31 31 30 30 32 32 32 31 31 32 32 33 32 32 31 31 31 31 31 31 31 32 33 33 34 34 34
24 25 26 23 23 24 25 26 25 24 24 26 27 24 24 23 23 24 24 25 24 24 24 25 25 25 24 25 25 25 26 26 26 26 28 28 27 26 27 28 27 28 28 29 30 29 29 29 29 30 31 31 31 31 31 30 31 31 31 30 31 31 31 31 31 31 31 31 31 32 31 31 31 32 31 31 31 31 31 31 31 32 32 33 33 33 33
25 25 25 24 24 24 23 22 23 23 24 22 21 22 23 23 23 23 24 23 24 25 25 24 24 25 25 25 25 26 27 27 27 26 26 26 26 26 27 28 28 28 28 28 27 27 28 28 28 29 30 31 32 31 30 30 30 31 31 31 31 31 31 30 30 31 31 32 31 30 31 31 31 31 31 31 31 30 30 31 31 31 32 32 32 32 31
25 25 25 25 25 24 22 22 23 23 23 23 22 22 22 23 22 23 23 23 24 24 24 25 25 24 25 25 25 25 25 25 25 25 26 26 24 23 24 28 28 27 27 27 27 26 27 28 28 29 30 31 31 31 31 31 31 30 31 31 30 29 29 30 30 31 31 31 30 31 31 31 31 30 29 30 30 30 31 30 31 31 31 31 31 32 32
22 23 24 25 24 22 22 23 20 21 22 23 21 20 22 21 21 22 23 24 24 24 25 25 25 25 26 25 25 25 24 19 19 22 22 21 21 19 19 24 27 27 26 25 24 26 26 27 28 30 29 30 30 31 31 31 31 31 31 30 31 31 29 29 29 29 30 30 30 31 30 31 31 30 30 29 30 30 30 30 30 30 30 31 32 32 32
21 20 20 22 21 20 19 20 20 20 22 22 22 23 23 23 23 24 24 25 24 25 25 26 26 25 25 24 23 22 20 18 17 17 17 18 16 16 18 21 24 26 26 26 27 27 27 27 28 29 29 30 30 31 31 30 30 31 30 30 30 29 29 29 30 30 30 30 30 31 30 30 30 30 30 29 30 29 28 30 30 30 31 32 32 32 32
21 21 22 24 22 21 19 19 21 22 22 23 24 24 24 24 24 24 24 24 24 25 25 26 25 24 22 21 19 16 16 15 14 16 12 12 14 15 18 23 25 26 27 27 27 27 27 28 29 29 30 30 30 30 30 30 30 30 30 30 30 31 30 29 29 29 30 30 30 29 30 28 30 30 30 30 28 27 28 28 29 30 32 32 32 32 32
24 24 24 25 25 25 21 22 22 24 24 21 22 23 25 24 24 24 24 25 25 25 25 25 24 22 19 17 14 13 14 15 15 12 10 9 12 13 17 24 27 26 26 25 26 26 27 28 29 29 29 30 30 30 30 30 30 30 29 30 29 30 30 29 29 30 31 30 30 30 30 30 29 29 30 30 30 29 27 28 30 31 32 32 32 31 31
26 25 26 26 26 27 26 24 24 24 25 24 22 22 24 25 24 24 24 25 25 25 25 24 22 19 17 14 14 14 14 15 12 9 9 10 12 16 23 28 28 27 25 25 24 24 25 26 28 28 29 29 29 30 30 29 29 30 30 30 29 28 28 28 28 29 29 30 30 30 30 30 29 29 30 30 31 31 31 30 30 31 32 31 31 30 30
26 24 25 25 25 25 24 25 26 26 25 25 24 24 25 25 25 25 25 24 25 25 25 24 23 21 21 20 18 14 11 12 11 10 11 11 15 22 27 27 26 26 25 25 25 26 27 27 28 28 29 29 29 29 28 28 29 30 30 30 29 29 28 29 29 29 29 29 29 29 28 29 30 31 31 32 32 32 31 32 31 32 32 31 30 29 29
26 24 24 24 24 24 24 25 26 26 25 24 24 25 25 25 25 25 25 25 25 25 25 24 24 23 19 16 14 12 13 9 9 10 10 12 18 24 26 25 26 25 25 25 25 26 26 27 27 29 29 29 29 29 28 28 28 29 30 30 29 28 28 28 28 28 29 29 29 29 30 29 29 32 32 32 32 32 32 32 32 32 32 31 31 30 30
25 25 26 26 26 25 25 27 26 26 25 23 24 25 25 26 26 26 25 25 25 25 25 24 22 21 20 19 17 18 17 14 11 9 11 14 20 23 24 25 26 26 26 26 26 25 26 26 28 29 29 29 29 29 28 28 28 29 30 29 29 28 28 28 29 29 28 28 29 31 32 32 32 32 33 33 32 31 30 31 32 32 32 32 31 31 31
26 25 25 26 25 26 26 26 26 26 26 26 25 25 25 26 25 26 26 26 26 25 25 24 22 22 21 20 20 20 20 20 16 13 15 17 23 24 25 25 26 26 27 27 26 26 25 25 27 28 29 29 29 29 28 27 27 29 30 30 29 29 28 28 28 29 29 29 30 31 32 32 32 32 33 33 32 31 31 32 32 33 33 32 32 32 32
26 26 26 27 26 26 27 27 26 27 26 27 26 26 26 26 25 24 25 26 26 26 25 24 23 23 22 21 21 21 22 23 22 21 20 22 21 22 22 25 26 27 27 27 27 26 26 26 27 27 27 27 28 28 27 26 26 28 30 29 29 29 29 28 29 29 29 29 30 31 32 32 33 33 33 33 32 31 31 32 33 33 33 33 33 33 32
26 26 26 27 28 28 27 27 27 28 28 27 28 27 27 28 26 26 26 25 26 26 25 24 24 23 23 23 23 23 23 23 24 23 23 22 22 21 21 25 28 28 28 27 27 27 27 27 27 27 27 26 26 26 27 27 27 28 30 30 29 29 29 29 29 29 29 29 29 29 30 31 32 33 33 32 32 32 32 33 33 33 33 33 33 32 32
26 26 26 27 27 27 28 27 27 28 27 28 28 28 28 28 28 27 26 26 26 26 26 25 25 25 24 23 23 23 23 24 24 25 24 24 24 25 25 25 26 27 27 27 27 27 27 27 27 27 26 26 26 26 27 27 27 28 30 30 29 29 29 29 29 28 28 29 29 29 30 29 31 32 32 32 33 32 32 32 32 32 33 33 33 32 32
26 27 27 27 27 27 26 27 26 27 27 29 28 27 28 28 28 28 27 26 26 27 26 26 26 25 25 24 24 24 24 24 24 25 24 25 25 26 26 26 25 25 25 25 26 26 26 26 26 26 26 26 26 26 26 27 27 28 30 30 30 29 29 29 29 29 29 28 27 29 29 27 29 32 32 32 31 31 31 32 32 32 32 32 32 32 31
27 27 27 27 27 26 27 27 27 28 28 28 28 28 28 27 28 28 28 27 27 27 27 27 26 26 25 25 25 24 24 24 24 25 23 22 21 20 24 26 27 27 26 26 26 26 26 26 26 26 25 26 26 27 27 26 27 28 30 30 30 30 29 30 30 29 28 28 28 28 28 28 29 27 28 28 29 29 31 32 32 32 32 32 31 31 31
28 28 27 27 27 27 28 28 28 27 28 29 30 30 30 29 28 28 29 29 28 27 27 28 27 27 26 26 26 26 25 24 22 24 22 19 17 19 23 26 26 27 27 27 27 26 26 26 26 26 26 26 27 27 26 27 28 29 30 30 30 29 29 29 29 29 29 28 28 29 29 29 29 29 29 28 29 29 31 32 32 32 31 31 32 31 32
27 28 28 27 28 27 27 27 27 29 30 29 28 29 28 27 27 27 27 27 28 29 27 27 27 27 27 26 26 25 23 22 20 20 21 21 22 23 24 25 25 26 27 27 27 27 26 26 27 27 27 27 27 26 26 28 29 29 30 30 29 30 29 29 30 29 29 28 27 27 27 27 28 30 30 30 30 30 31 31 31 31 31 31 31 30 30
28 28 28 27 27 28 28 29 29 28 28 29 28 28 28 28 27 27 27 27 28 28 27 27 27 26 26 25 25 24 23 22 18 20 20 19 19 20 21 22 24 26 27 27 27 27 27 27 27 27 27 27 27 26 27 29 29 30 30 30 29 29 29 29 29 29 29 29 29 29 28 29 29 29 28 29 30 31 31 31 31 30 29 29 29 29 30
28 28 29 28 28 29 29 29 28 28 29 28 28 28 27 28 28 28 28 27 26 27 26 26 26 27 26 26 25 23 23 22 20 22 23 20 20 21 23 25 27 27 26 26 26 26 27 27 27 27 27 27 26 27 27 28 29 29 29 30 29 29 29 29 29 29 29 29 29 29 29 29 29 29 28 28 29 31 31 30 30 29 28 28 28 28 29
28 27 28 28 28 29 29 28 28 28 26 28 29 28 27 28 28 28 28 28 28 27 26 26 26 26 27 26 26 25 23 22 22 21 22 22 22 23 25 26 26 27 26 26 26 26 26 27 27 26 26 26 26 26 27 27 29 29 29 28 28 27 27 27 28 28 28 28 29 29 28 28 28 27 27 28 28 28 28 29 29 29 29 29 29 29 29
28 28 28 27 27 27 27 28 28 28 28 28 29 28 29 29 29 29 29 29 28 27 26 26 27 27 27 26 25 24 23 22 22 23 22 22 23 24 25 25 26 26 26 25 25 25 24 26 26 25 25 26 26 27 26 27 27 27 27 28 28 28 27 28 27 29 29 29 29 29 29 28 28 29 28 27 28 29 30 30 30 30 29 29 29 29 29
28 27 28 26 26 27 27 27 28 30 29 28 28 29 30 30 29 29 28 28 27 27 26 26 26 27 26 26 26 23 22 21 22 22 23 23 24 23 24 25 25 25 25 25 24 26 25 25 26 26 26 25 26 26 26 26 25 25 26 26 27 27 27 28 27 28 28 29 29 29 29 28 28 28 27 27 28 29 30 30 31 30 30 30 30 30 30